Orbital Elements at Epoch 2459200.5 (2020-Dec-17.0) TDB
Reference: JPL 12 (heliocentric ecliptic J2000)
Element | Value | Uncertainty (1-sigma) | Units |
e | .2493856805671605 | 4.3866e-08 | |
a | 2.45887742926485 | 1.4336e-08 | au |
q | 1.845668608136406 | 1.1359e-07 | au |
i | .7090383322578445 | 6.4747e-06 | deg |
node | 258.9521927148015 | 0.00037972 | deg |
peri | 50.23481830362751 | 0.00038005 | deg |
M | 204.2675687919173 | 1.9763e-05 | deg |
tp | 2459809.728638545541 (2022-Aug-18.22863855) | 8.1284e-05 | TDB |
period | 1408.327784874469 3.86 | 1.2316e-05 3.372e-08 | d yr |
n | .2556223088590761 | 2.2355e-09 | deg/d |
Q | 3.072086250393295 | 1.7911e-08 | au |
|
| | Orbit Determination Parameters
Additional Information
|